Weather History for Kogalniceanu, Romania

Change the Weather History Date:

Friday, March 8, 2013

  Actual Average Record
Temperature  
Mean Temperature 52 °F -  
Max Temperature 59 °F 51 °F 64 °F (1999)
Min Temperature 46 °F 33 °F 23 °F (2006)
Degree Days  
Heating Degree Days 12    
Growing Degree Days 2 (Base 50)    
Moisture  
Dew Point 39 °F    
Average Humidity 64    
Maximum Humidity 76    
Minimum Humidity 48    
Precipitation  
Precipitation 0.00 in - - ()
Sea Level Pressure  
Sea Level Pressure 29.75 in    
Wind  
Wind Speed 8 mph ()    
Max Wind Speed 13 mph    
Max Gust Speed -    
Visibility 6.2 miles    
Events Rain    
Averages and records for this station are not official NWS values.
T = Trace of Precipitation, MM = Missing Value Source: Averaged Metar Reports

Daily Weather History Graph

Daily Weather History Graph

Search for Another Location

Airport:

Trip Planner

Search our weather history database for the weather conditions in past years. The results will help you decide how hot, cold, wet, or windy it might be!

Date:

Astronomy

Mar. 08, 2013 Rise Set
Actual Time 6:31 AM EET 6:03 PM EET
Civil Twilight 6:02 AM EET 6:32 PM EET
Nautical Twilight 5:28 AM EET 7:06 PM EET
Astronomical Twilight 4:55 AM EET 7:39 PM EET
Moon 4:08 AM EET (3/8) 2:30 PM EET (3/8)
Length of Visible Light 12h 29m
Length of Day
11h 32m
Waning Crescent, 14% of the Moon is Illuminated
Mar 8
Waning Crescent
Mar 11
New
Mar 19
First Quarter
Mar 27
Full
Apr 3
Last Quarter

Hourly Weather History & Observations

Time (EET) Temp. Windchill Dew Point Humidity Pressure Visibility Wind Dir Wind Speed Gust Speed Precip Events Conditions
12:00 AM 46.4 °F 41.5 °F 39.2 °F 76% 29.80 in - SW 10.4 mph - N/A   Clear
12:30 AM 46.4 °F 40.7 °F 39.2 °F 76% 29.80 in - SW 12.7 mph - N/A   Clear
1:00 AM 46.4 °F 41.1 °F 39.2 °F 76% 29.77 in - SW 11.5 mph - N/A   Clear
1:30 AM 46.4 °F 41.1 °F 39.2 °F 76% 29.77 in - SW 11.5 mph - N/A   Clear
2:00 AM 46.4 °F 40.7 °F 39.2 °F 76% 29.77 in - SW 12.7 mph - N/A   Clear
2:30 AM 46.4 °F 41.5 °F 39.2 °F 76% 29.77 in - SW 10.4 mph - N/A   Clear
3:00 AM 46.4 °F 41.5 °F 39.2 °F 76% 29.77 in - SW 10.4 mph - N/A   Clear
3:30 AM 48.2 °F - 39.2 °F 71% 29.74 in - SW 8.1 mph - N/A   Clear
4:00 AM 48.2 °F - 39.2 °F 71% 29.74 in - SW 8.1 mph - N/A   Clear
4:30 AM 48.2 °F - 39.2 °F 71% 29.74 in - SW 9.2 mph - N/A   Clear
5:00 AM 48.2 °F - 39.2 °F 71% 29.74 in - SW 9.2 mph - N/A   Clear
6:00 AM 48.2 °F - 37.4 °F 66% 29.74 in - SW 8.1 mph - N/A   Clear
6:30 AM 48.2 °F - 37.4 °F 66% 29.74 in - Variable 2.3 mph - N/A   Clear
7:00 AM 46.4 °F 43.5 °F 39.2 °F 76% 29.77 in - South 5.8 mph - N/A   Clear
7:30 AM 46.4 °F 44.3 °F 39.2 °F 76% 29.77 in - SSW 4.6 mph - N/A   Clear
8:00 AM 48.2 °F - 39.2 °F 71% 29.77 in - South 5.8 mph - N/A   Clear
8:30 AM 48.2 °F - 39.2 °F 71% 29.77 in - SSW 5.8 mph - N/A   Clear
9:00 AM 48.2 °F - 39.2 °F 71% 29.77 in 6.2 mi SSW 4.6 mph - N/A   Mostly Cloudy
9:30 AM 50.0 °F - 41.0 °F 71% 29.77 in 6.2 mi SW 5.8 mph - N/A Rain Light Rain
10:00 AM 50.0 °F - 41.0 °F 71% 29.77 in 6.2 mi SW 6.9 mph - N/A   Mostly Cloudy
10:30 AM 51.8 °F - 41.0 °F 67% 29.77 in - SW 5.8 mph - N/A   Clear
11:00 AM 53.6 °F - 39.2 °F 58% 29.77 in - SW 8.1 mph - N/A   Clear
11:30 AM 55.4 °F - 39.2 °F 54% 29.74 in 6.2 mi SW 10.4 mph - N/A   Scattered Clouds
12:00 PM 55.4 °F - 39.2 °F 54% 29.74 in 6.2 mi WSW 10.4 mph - N/A   Partly Cloudy
12:30 PM 57.2 °F - 39.2 °F 51% 29.74 in - West 9.2 mph - N/A   Clear
1:00 PM 57.2 °F - 39.2 °F 51% 29.74 in - West 10.4 mph - N/A   Partly Cloudy
1:30 PM 57.2 °F - 39.2 °F 51% 29.74 in 6.2 mi West 9.2 mph - N/A   Scattered Clouds
2:00 PM 57.2 °F - 39.2 °F 51% 29.71 in 6.2 mi West 9.2 mph - N/A   Scattered Clouds
2:30 PM 57.2 °F - 39.2 °F 51% 29.74 in 6.2 mi West 9.2 mph - N/A   Mostly Cloudy
3:00 PM 57.2 °F - 39.2 °F 51% 29.74 in 6.2 mi West 10.4 mph - N/A   Mostly Cloudy
3:30 PM 57.2 °F - 39.2 °F 51% 29.71 in 6.2 mi West 6.9 mph - N/A   Scattered Clouds
4:00 PM 59.0 °F - 39.2 °F 48% 29.71 in 6.2 mi WSW 5.8 mph - N/A   Mostly Cloudy
4:30 PM 59.0 °F - 39.2 °F 48% 29.71 in 6.2 mi WSW 6.9 mph - N/A   Partly Cloudy
5:00 PM 59.0 °F - 41.0 °F 51% 29.71 in - West 4.6 mph - N/A   Clear
5:30 PM 57.2 °F - 41.0 °F 55% 29.74 in - WSW 3.5 mph - N/A   Clear
6:00 PM 55.4 °F - 41.0 °F 58% 29.74 in - NW 4.6 mph - N/A   Clear
6:30 PM 53.6 °F - 39.2 °F 58% 29.74 in - NW 5.8 mph - N/A   Clear
7:00 PM 51.8 °F - 39.2 °F 62% 29.74 in - ESE 2.3 mph - N/A   Clear
7:30 PM 51.8 °F - 39.2 °F 62% 29.74 in - SSE 3.5 mph - N/A   Clear
8:00 PM 51.8 °F - 39.2 °F 62% 29.74 in - South 3.5 mph - N/A   Clear
8:30 PM 50.0 °F - 39.2 °F 66% 29.74 in - West 2.3 mph - N/A   Clear
9:00 PM 50.0 °F - 39.2 °F 66% 29.74 in - Calm Calm - N/A   Clear
9:30 PM 50.0 °F - 39.2 °F 66% 29.74 in - North 4.6 mph - N/A   Clear
10:00 PM 48.2 °F - 39.2 °F 71% 29.74 in - North 8.1 mph - N/A   Clear
10:30 PM 48.2 °F - 37.4 °F 66% 29.74 in - NE 6.9 mph - N/A   Clear
11:00 PM 48.2 °F - 37.4 °F 66% 29.74 in - NNE 5.8 mph - N/A   Clear
11:30 PM 46.4 °F 42.4 °F 37.4 °F 71% 29.74 in - NE 8.1 mph - N/A   Clear